Location: Betz
(49.1556°N, 2.9558°E)
Time: 20:46:53
(UTC+00:00)

Cosmos 1674 - Pass Details

Date: 18 September 2019
Orbit: 495 x 520 km, 82.5° (Epoch: 18 October)

Event Time Altitude Azimuth Distance (km) Brightness Sun altitude
Rises 19:51:30 0° 353° (N) 2,602 6.7 -19.0°
Reaches altitude 10° 19:53:40 10° 358° (N) 1,710 5.7 -19.4°
Enters shadow 19:57:16 57° 70° (ENE) 594 2.7 -19.9°
